カタログに戻る

COSMOS 1275 DEB

運用中PO
NORAD 12693·DEBRIS·🇷🇺 Russia

打ち上げ Jun 4, 1981 から Plesetsk Cosmodrome

Loading…

次のパス (今後24時間)

TLE

最新Source: Space-Track

元期: Sep 14, 2026, 08:57 UTC

1 12693U 81053AM  26257.37346824  .00000974  00000-0  43355-3 0  9990
2 12693  83.1419 227.1931 0047379 138.4903  14.8853 14.21352094   743

AllMySatでCOSMOS 1275 DEBをリアルタイム追跡

Download on the App Store